Theta_e
317 319 319 319 320 320 320 319 319 320 320 319 320 319 319 318 319 320 318 315 316 317 318 318 319 319 320 320 318 315 313 313 314 314 313 312 310 309 308 308 307 307 307 308 307 306 307 308 309 311 312 313 314 316 317 318 318 317 317 318 319 319 319 319 318 319 319 319 319 318 318 319 318 318 318 318 318 317 317 317 317 316 315 314 314 312
316 319 320 320 320 320 320 320 319 319 319 319 319 318 319 319 319 320 318 315 315 316 318 318 318 319 318 319 320 317 313 313 314 314 314 312 311 310 309 308 307 306 307 307 306 306 307 308 309 311 313 314 315 316 317 317 318 317 316 317 318 317 317 317 317 317 318 318 317 317 317 317 317 314 313 312 312 312 311 311 310 309 308 307 306 306
317 319 319 320 320 319 319 318 318 318 318 318 319 318 319 319 320 320 317 314 314 315 317 318 318 318 318 319 320 318 314 315 315 315 315 313 311 310 309 308 307 306 306 305 305 306 307 308 309 311 313 314 314 315 316 316 317 317 317 317 317 317 317 317 317 317 317 316 316 315 314 314 312 308 307 307 307 306 306 305 305 305 305 305 304 304
320 319 319 320 319 318 317 317 317 317 317 318 319 319 319 320 321 320 317 314 314 314 316 317 316 317 318 318 319 319 317 316 314 312 313 312 310 310 308 307 306 306 305 304 305 306 307 308 309 311 313 314 314 315 316 316 317 317 317 317 317 316 316 316 315 315 314 313 312 311 310 308 307 305 305 305 305 304 304 304 303 303 303 303 302 302
321 319 319 319 317 317 317 317 317 317 318 319 319 319 319 320 320 319 318 315 314 315 315 315 317 319 319 320 320 317 313 312 311 309 309 309 309 308 307 307 306 305 305 304 304 306 307 308 309 311 312 313 314 315 315 316 317 317 317 317 317 316 315 314 313 312 310 309 308 307 306 305 305 304 304 304 304 303 303 303 302 302 302 302 301 301
320 317 316 317 316 317 318 317 318 318 318 319 320 319 319 319 319 319 319 317 317 319 316 316 320 322 321 322 322 315 311 311 310 309 309 308 307 307 306 306 305 304 304 304 304 305 307 308 308 311 312 313 315 315 314 316 316 316 316 317 316 315 314 312 310 308 307 306 306 305 305 305 304 304 303 303 303 302 302 302 302 301 301 301 300 300
318 315 315 317 317 317 318 317 318 318 318 320 320 319 318 318 319 318 318 318 320 322 317 315 320 324 321 322 322 316 313 313 310 309 310 308 307 306 306 305 304 304 304 304 304 305 307 307 308 311 313 314 315 314 314 315 316 315 315 314 313 311 309 307 306 305 305 304 304 304 304 304 304 303 303 302 302 302 302 301 301 301 300 300 300 299
317 315 315 317 317 318 318 318 319 317 318 320 319 318 318 318 319 318 319 319 320 321 317 315 318 322 321 321 321 317 315 315 311 309 309 309 307 306 306 305 304 303 304 304 304 305 306 307 308 311 313 314 315 315 315 315 315 313 311 309 308 307 306 305 304 304 304 303 303 303 303 303 303 303 302 302 301 301 301 300 300 300 299 299 299 299
317 316 317 317 317 318 318 318 319 317 318 319 316 316 317 317 318 319 319 319 319 320 320 318 318 320 322 321 320 318 317 318 316 312 310 309 308 306 306 305 304 303 303 304 305 306 306 307 309 312 313 314 315 315 315 313 311 309 307 306 305 304 304 303 303 303 303 303 302 302 302 302 302 302 301 301 301 300 300 300 299 299 298 298 298 297
316 314 315 317 317 319 317 315 317 317 317 316 314 316 316 316 317 318 319 319 319 320 321 320 319 321 323 321 320 319 317 319 319 316 312 309 308 306 306 304 303 303 302 303 305 306 306 307 309 312 313 313 313 312 311 308 306 305 304 304 303 303 303 302 302 302 302 302 302 302 302 302 301 301 301 300 300 299 299 298 298 298 297 297 297 296
313 310 313 315 317 317 314 311 313 315 315 315 315 317 317 316 316 316 317 317 319 321 321 320 319 320 322 322 320 319 317 317 319 316 312 309 308 306 305 304 303 302 303 304 304 305 306 307 309 311 312 311 310 308 306 305 304 303 303 303 302 302 302 302 301 301 301 301 301 301 301 301 300 300 299 299 299 298 298 297 297 297 296 296 295 295
314 313 314 314 314 314 314 312 311 312 314 316 317 317 319 319 316 317 317 317 320 324 321 318 319 320 322 322 320 319 316 315 316 314 311 309 308 306 305 304 303 302 304 304 304 305 306 307 308 309 309 308 306 305 304 303 303 303 302 302 302 302 302 301 301 301 300 301 300 300 300 300 299 299 298 298 298 297 297 297 296 296 295 295 295 294
316 316 316 314 312 313 315 316 313 312 313 315 317 318 321 323 321 321 321 318 321 322 316 315 318 320 321 320 319 319 315 313 313 313 312 310 308 307 305 304 303 303 304 304 304 306 306 306 307 307 306 305 304 303 303 302 302 302 302 302 302 301 301 301 301 300 300 300 300 299 299 299 299 298 298 297 297 297 296 296 296 295 295 295 294 294
320 318 316 315 313 313 315 317 317 315 313 315 317 319 322 325 326 327 325 322 324 320 313 313 316 319 320 318 318 318 314 311 310 310 311 310 308 306 305 304 303 303 304 304 304 305 305 305 305 305 304 304 303 303 302 302 302 302 302 301 301 301 301 301 300 300 300 300 299 299 299 298 298 298 297 297 297 296 296 296 295 295 295 294 294 294
323 322 318 317 316 314 314 318 320 318 315 315 317 319 321 324 326 327 325 325 325 318 312 313 317 319 319 316 314 312 310 308 307 307 308 309 307 306 304 303 302 302 303 304 304 305 305 305 304 304 303 303 302 302 302 302 301 301 301 301 301 301 301 300 300 300 300 299 299 298 298 298 297 297 297 296 296 296 295 295 295 294 294 294 294 294
324 324 319 316 315 314 315 317 318 319 317 316 317 319 321 321 323 324 321 318 317 317 315 314 316 318 317 314 310 308 308 307 306 306 307 308 307 305 304 303 302 302 303 303 304 304 304 304 303 303 302 302 302 302 301 301 301 301 301 301 301 301 300 300 299 299 299 299 298 298 298 297 297 297 296 296 296 295 295 295 294 294 294 294 294 293
323 322 317 313 313 313 314 316 316 318 319 317 317 319 318 317 319 322 319 314 313 319 321 316 315 316 316 315 311 308 308 307 306 307 307 307 306 305 304 303 302 302 303 304 304 303 303 303 302 302 302 302 301 301 301 301 301 301 301 301 300 300 300 299 299 299 298 298 298 298 297 297 297 296 296 296 295 295 294 294 294 294 294 293 293 293
322 321 315 313 315 311 309 313 314 315 316 316 317 318 316 315 316 318 320 320 319 322 323 319 317 318 318 318 313 309 310 309 307 307 307 306 306 305 305 303 303 303 303 303 303 303 302 302 302 302 302 301 301 301 301 301 301 300 300 300 300 300 299 299 299 298 298 298 298 297 297 296 296 296 295 295 295 294 294 294 294 293 293 293 292 292
321 322 316 312 314 311 308 312 315 313 313 314 315 316 317 318 319 318 320 322 323 324 323 321 319 318 319 319 315 313 313 311 309 307 306 306 305 306 305 304 303 302 302 303 302 302 302 302 302 302 301 301 301 301 300 300 300 300 300 300 299 299 299 299 298 298 298 297 297 297 296 296 296 295 295 294 294 294 293 293 293 293 292 292 292 292
318 322 319 311 311 311 310 313 316 314 312 311 313 315 316 317 319 319 319 321 322 323 324 323 321 319 319 319 317 316 315 313 311 308 307 306 305 305 305 304 303 302 302 302 302 302 302 302 302 301 301 301 300 300 300 300 300 300 299 299 299 299 298 298 298 298 297 297 296 296 296 296 295 295 294 293 293 293 292 292 292 292 292 292 291 291
317 320 321 313 310 312 313 314 316 317 314 312 313 315 316 315 315 316 318 319 320 322 323 323 323 320 318 318 318 318 317 315 312 309 308 308 306 305 305 304 304 303 302 302 302 302 302 302 301 301 301 301 300 300 300 300 299 299 299 299 298 298 298 298 297 297 296 296 296 295 295 295 294 293 293 292 292 292 291 291 291 291 291 291 291 291
318 319 320 315 311 313 315 314 314 315 315 314 315 316 316 316 316 317 319 319 318 319 321 321 323 321 316 315 315 315 315 315 313 311 310 308 307 306 305 305 304 303 303 303 302 302 302 302 301 301 301 300 300 300 300 299 299 299 299 298 298 297 297 297 297 296 296 295 295 294 294 294 293 292 292 291 291 291 291 291 290 290 290 290 290 290
318 318 319 318 315 315 315 312 311 311 313 314 315 316 317 317 317 319 322 320 317 318 318 318 320 320 314 311 310 310 310 310 310 312 311 309 308 306 305 305 304 303 303 303 302 302 302 301 301 301 300 300 300 299 299 299 299 299 298 298 297 297 297 296 296 296 295 295 294 294 293 292 292 291 291 290 290 290 290 290 290 290 290 290 290 290
316 317 318 319 318 315 313 311 311 310 311 313 314 315 316 317 317 318 319 317 317 318 318 317 320 320 313 308 309 308 307 307 307 309 310 309 308 307 306 305 304 304 303 302 302 302 301 301 301 301 300 300 300 299 299 299 298 298 298 298 297 296 296 295 295 295 294 294 293 293 292 291 291 290 290 290 290 290 289 289 290 290 290 290 290 289
316 316 318 320 321 319 316 315 313 312 311 313 314 314 315 316 317 318 316 315 317 319 319 319 321 320 313 308 308 307 306 307 306 306 308 309 308 306 306 305 304 304 303 302 302 301 301 301 301 301 300 300 300 299 299 298 298 298 298 298 297 295 295 294 294 294 294 293 293 292 291 291 290 290 290 289 289 289 289 289 290 290 290 290 289 289
317 318 318 320 323 323 323 321 318 315 312 312 313 314 315 316 317 318 316 317 319 320 319 319 320 318 313 309 309 308 307 308 307 305 306 307 307 306 305 305 304 304 303 303 302 301 301 301 301 301 300 300 300 299 299 298 298 298 298 297 296 295 294 294 294 294 293 292 292 291 291 290 290 289 289 289 289 289 289 289 289 290 289 289 289 289
316 318 318 320 323 324 324 323 320 317 315 314 314 314 315 316 317 317 317 318 319 319 319 320 320 318 315 311 311 310 308 309 308 306 305 305 306 305 305 305 304 304 303 303 302 302 301 301 301 301 300 300 300 299 299 298 298 298 298 296 295 294 294 294 294 293 292 292 291 291 290 290 289 289 289 289 289 289 289 290 289 289 289 289 289 289
313 317 319 320 321 322 322 320 318 318 317 316 316 315 314 316 316 317 317 317 318 318 319 319 319 319 317 313 312 312 310 310 311 309 307 306 305 305 305 304 303 304 303 303 303 302 302 301 301 300 300 300 299 299 299 299 298 298 297 296 295 294 294 294 293 293 292 291 291 290 290 289 289 289 289 289 289 289 289 290 289 289 289 289 289 289
315 316 318 319 319 320 320 318 316 317 318 317 317 316 314 315 315 316 316 316 317 318 319 319 319 320 318 314 313 313 312 312 312 311 309 307 306 305 304 303 303 304 304 304 304 303 302 302 301 300 300 300 300 300 299 299 298 298 296 295 295 295 294 294 293 292 292 291 291 290 289 289 289 289 288 288 288 289 289 290 289 290 289 289 289 289
315 316 317 319 319 319 319 318 316 316 317 317 317 316 315 315 315 315 315 315 316 317 318 318 319 319 317 315 313 313 313 312 311 310 309 308 307 306 305 305 305 306 307 307 306 304 303 302 301 301 301 300 300 300 299 299 299 297 296 295 295 295 294 294 293 292 292 291 290 289 289 289 288 288 288 288 288 289 289 290 289 289 290 289 289 289
313 316 318 318 318 318 319 318 317 315 316 317 317 317 316 315 315 314 314 314 315 316 316 317 318 317 316 315 314 312 311 310 309 309 309 309 309 308 308 307 308 309 309 307 305 303 302 302 302 301 301 301 301 300 300 299 299 297 296 295 295 295 295 294 293 292 292 291 290 289 289 289 288 288 288 288 288 289 289 289 289 289 289 289 289 289
312 314 316 316 317 318 318 318 316 315 315 316 316 316 316 316 315 314 314 314 314 315 315 316 316 316 315 316 315 311 309 309 309 309 309 309 309 309 309 308 309 310 309 307 305 304 303 303 302 302 302 302 301 300 300 299 299 297 296 295 296 296 295 294 294 293 292 291 290 289 289 289 288 288 288 288 288 289 289 289 289 289 289 289 289 289
312 313 314 315 317 318 317 317 316 314 315 317 316 316 315 315 315 314 314 314 313 314 315 315 315 315 315 317 316 313 311 310 309 309 310 309 309 308 309 308 309 309 308 307 306 306 305 305 304 304 303 302 301 301 300 300 299 298 297 296 297 297 295 295 294 293 292 290 290 289 289 288 288 288 288 288 288 288 289 289 289 289 289 289 289 289
311 313 313 314 317 317 313 313 315 316 318 318 315 316 316 315 315 314 314 313 313 313 314 313 315 315 314 314 315 313 312 311 311 311 311 310 309 308 307 307 307 307 307 307 307 306 306 306 305 304 303 302 302 301 300 300 299 299 298 298 297 297 296 295 294 293 292 291 290 289 289 288 288 288 287 287 287 288 289 289 289 289 288 288 288 288
311 311 312 313 315 314 310 313 317 319 318 313 308 309 311 312 314 314 314 314 313 313 312 312 313 313 312 312 312 311 311 311 310 310 309 308 308 308 307 306 305 305 306 306 306 306 305 305 305 304 303 302 301 301 300 300 300 299 299 298 298 297 296 295 294 293 292 291 290 290 289 289 288 288 287 287 287 287 288 289 289 289 288 288 288 288
311 311 312 313 313 311 310 314 319 318 314 308 303 303 307 312 314 314 315 315 313 312 312 312 311 311 311 310 309 308 308 308 308 307 307 307 307 307 306 306 305 306 306 306 306 305 305 304 303 303 302 301 300 300 300 299 299 299 299 298 298 297 296 295 294 293 292 291 290 290 290 290 289 288 288 287 287 287 288 288 289 288 288 288 288 288
311 312 312 313 313 312 312 313 315 316 315 310 305 305 308 311 313 314 315 315 314 313 313 312 312 312 310 306 304 305 305 305 305 305 306 306 306 306 306 306 306 306 306 305 304 304 303 303 302 301 300 299 299 299 298 299 299 299 299 299 298 297 296 295 294 294 292 290 290 291 292 292 292 291 289 288 287 287 287 288 288 288 288 288 288 288
309 311 312 313 314 313 313 313 313 316 317 313 309 307 306 307 309 313 315 315 314 313 312 312 313 313 309 303 300 302 304 304 305 306 306 306 306 305 305 305 305 305 304 304 303 302 302 301 300 299 298 298 298 298 298 299 299 299 299 299 299 298 297 296 295 294 293 291 291 292 294 294 293 292 291 289 288 287 287 288 288 288 288 288 288 288
306 307 309 312 313 312 312 314 315 315 315 313 308 304 302 304 308 310 312 313 311 309 308 311 312 311 307 301 299 301 304 306 308 307 306 306 306 305 305 305 304 304 303 302 301 300 299 298 297 297 297 297 297 298 298 298 298 298 298 298 298 298 297 297 296 295 294 293 293 294 294 294 294 293 292 290 288 287 287 288 288 288 288 288 288 288
306 307 308 311 312 312 311 313 314 314 313 309 303 300 300 303 306 310 312 311 308 305 306 308 309 306 303 300 299 301 305 308 308 306 304 305 305 304 304 304 303 302 301 299 298 297 297 297 296 296 296 297 298 298 298 298 297 297 297 297 297 297 297 297 297 296 295 294 294 294 294 294 293 293 292 290 289 288 288 288 288 288 288 288 288 288
306 306 308 310 311 311 312 313 312 313 312 306 300 298 299 302 306 311 312 307 302 300 302 305 306 304 302 300 300 302 305 306 305 303 301 301 301 300 300 300 300 299 298 297 297 296 296 296 296 296 297 297 298 298 297 297 297 297 296 296 296 296 296 296 296 296 295 295 294 294 294 293 293 292 291 290 289 289 289 289 288 288 288 288 288 288
307 307 307 309 310 311 312 312 312 313 308 302 298 297 299 304 309 309 305 301 299 299 301 303 305 305 304 302 302 303 304 303 302 301 299 298 297 297 297 297 297 297 297 296 296 296 296 296 296 297 297 297 297 297 296 296 296 295 295 295 294 294 294 294 294 294 294 294 294 293 293 292 292 291 291 290 289 289 289 288 288 288 288 288 288 288
307 307 307 308 309 310 310 311 313 313 305 298 298 299 300 304 307 303 299 298 299 300 301 302 302 303 304 304 303 303 302 301 300 299 298 297 296 296 296 296 296 296 296 296 296 296 296 296 297 297 297 297 296 296 295 294 294 294 293 293 293 292 292 292 292 292 292 292 292 292 292 292 291 291 290 290 289 288 288 288 288 288 288 288 287 287
308 308 308 309 309 310 311 311 310 307 302 299 301 303 302 302 302 300 298 298 298 299 301 301 300 300 301 302 302 301 300 299 298 297 296 295 295 295 295 295 294 295 295 295 295 295 295 296 297 296 296 295 294 294 293 293 292 292 292 292 292 291 291 291 290 291 291 291 291 291 291 291 290 290 289 289 288 288 288 288 288 288 288 287 287 287
307 306 305 307 308 307 307 306 302 299 299 299 299 301 301 300 299 299 299 298 298 298 299 299 299 298 299 299 300 299 298 298 297 296 295 295 294 294 294 294 294 294 294 294 294 294 295 295 295 294 294 293 292 292 292 292 292 292 291 291 291 291 291 290 290 290 290 290 290 290 290 290 290 289 289 288 288 288 288 289 288 288 288 288 287 287
300 299 301 303 304 303 301 300 298 297 298 298 298 299 300 299 298 298 299 298 298 299 298 298 298 298 298 298 297 297 297 297 296 295 295 294 294 294 294 294 293 293 293 293 293 293 293 293 292 292 292 292 292 292 292 291 292 291 291 291 291 291 291 291 291 290 290 290 290 289 289 289 289 289 288 288 288 289 289 289 288 288 288 288 287 287
297 297 299 301 303 304 302 298 296 296 297 297 297 298 298 298 298 299 298 298 298 298 298 298 298 298 297 297 296 296 296 296 295 295 294 294 294 293 293 293 293 293 293 293 293 292 292 292 292 292 292 292 292 292 292 291 291 291 291 291 291 291 291 291 291 291 290 290 290 289 289 289 289 289 288 288 289 289 289 288 288 288 288 288 287 287
299 298 299 300 301 301 299 295 293 294 296 296 297 297 297 297 299 299 298 298 297 297 297 297 297 297 296 296 296 296 296 295 295 294 294 294 294 293 293 293 293 293 293 293 293 292 292 292 292 292 292 292 292 292 292 292 291 292 291 291 291 291 291 291 291 291 291 290 290 290 289 289 289 289 289 289 289 289 288 288 288 288 288 288 287 287
299 299 299 299 298 296 295 294 293 294 295 296 296 297 296 298 299 299 299 298 297 297 297 296 296 296 295 295 296 295 295 295 295 294 294 294 293 293 293 293 293 293 293 293 293 293 292 292 292 292 292 292 292 292 292 291 292 292 291 291 291 291 291 291 291 291 291 291 290 290 290 290 289 289 289 289 288 288 288 288 288 288 288 288 287 286
298 299 298 298 298 299 297 295 295 297 297 297 297 298 298 298 299 298 298 297 297 296 296 296 296 295 295 295 295 295 295 295 294 294 294 293 293 293 293 293 293 293 293 293 293 293 293 293 292 292 292 292 292 291 291 291 291 291 291 291 291 291 291 291 291 291 291 290 290 290 290 290 289 289 289 289 289 288 288 288 288 288 288 287 287 286
298 299 298 298 299 299 298 296 296 297 297 297 298 299 299 298 298 298 297 297 297 296 296 296 295 295 295 295 295 294 294 294 294 294 294 293 293 293 293 293 293 293 293 293 293 293 293 292 292 292 292 292 291 291 291 291 291 291 291 291 291 291 291 291 290 290 290 290 290 290 290 290 290 289 289 289 289 288 288 288 288 288 287 287 287 286
Wind_Speed
6 6 6 8 9 9 11 13 13 9 5 5 6 7 9 9 9 7 2 4 2 4 9 11 12 14 14 12 10 15 17 15 15 13 12 12 11 11 11 13 13 13 14 13 10 11 11 11 10 9 10 11 11 13 15 15 13 12 13 14 15 15 14 12 11 12 11 11 10 11 10 9 9 7 6 4 3 3 4 4 4 4 5 5 5 5
5 7 9 12 12 10 8 10 12 9 6 8 8 8 9 8 9 7 2 5 3 3 9 11 13 15 13 14 13 12 15 15 18 17 16 15 14 12 13 14 14 14 15 12 11 13 13 13 12 11 12 14 13 14 15 15 13 12 13 14 14 14 13 12 11 11 11 10 9 9 9 9 9 8 8 8 9 10 11 12 12 12 12 12 12 12
6 9 12 13 8 4 4 5 9 9 9 9 7 7 8 7 8 6 4 5 3 3 7 9 11 14 13 14 13 12 16 17 19 18 16 16 15 14 14 15 15 15 14 12 13 14 14 14 14 13 14 16 15 15 16 15 15 14 13 14 13 13 13 12 12 11 11 11 10 9 10 12 13 15 16 16 18 18 18 18 17 17 16 15 15 15
7 7 11 11 5 5 6 6 8 8 8 8 7 7 7 7 7 5 3 4 4 5 6 8 8 12 13 14 15 15 15 11 11 11 11 12 13 13 13 15 16 15 14 13 14 15 16 15 15 15 15 17 17 17 17 16 16 15 14 14 13 12 12 12 12 12 12 13 15 16 18 18 19 21 21 20 21 20 19 19 17 17 16 15 15 14
10 2 3 7 7 7 8 8 9 7 6 8 10 8 8 8 8 7 3 1 5 7 6 7 9 10 12 15 14 8 4 4 7 8 9 11 11 11 13 16 15 14 14 14 15 16 17 17 17 16 16 17 19 18 19 19 18 16 15 14 12 11 12 12 13 15 17 19 21 22 23 22 22 22 21 20 20 19 17 17 16 15 14 13 13 13
12 3 7 7 6 7 9 7 9 8 6 8 10 12 12 11 10 10 6 2 5 7 5 5 8 7 6 10 9 5 4 6 8 9 12 13 13 14 15 16 17 16 15 15 16 18 19 19 18 17 16 18 20 20 20 21 20 19 17 15 13 13 14 15 18 20 21 22 23 23 23 22 21 21 20 18 17 16 15 14 14 13 12 11 11 11
4 5 5 6 6 7 8 8 9 9 7 7 4 7 12 12 11 10 7 3 6 6 2 4 7 7 4 7 6 7 8 9 10 11 14 16 16 16 16 16 18 19 18 17 18 20 22 21 19 19 19 20 21 21 22 22 21 20 18 17 17 17 18 20 22 22 22 22 22 21 20 19 18 18 18 17 14 13 12 12 11 10 10 9 9 9
4 7 5 6 6 7 8 8 9 9 8 4 2 1 7 9 9 9 8 6 6 6 2 5 6 9 8 10 9 7 8 10 12 12 14 17 17 18 16 16 18 20 20 20 21 22 23 22 21 21 22 22 23 22 22 22 21 21 21 21 22 22 22 22 22 22 21 20 19 18 18 18 16 15 15 14 12 11 10 9 8 8 7 6 6 6
4 8 9 9 9 8 7 5 6 11 8 2 3 2 1 2 5 6 6 6 6 6 6 7 6 7 9 7 8 9 9 13 13 13 15 18 18 18 17 16 17 18 19 21 22 24 24 24 25 24 23 24 24 24 23 24 24 25 25 26 26 25 24 23 22 21 20 18 17 16 14 14 14 13 12 12 10 10 9 8 7 6 5 5 5 5
3 2 4 8 8 7 4 3 2 7 5 2 5 3 4 1 1 2 5 5 5 7 9 8 9 6 8 5 6 7 7 13 12 10 13 17 19 19 18 18 17 18 19 20 23 25 26 27 27 26 25 25 25 25 26 27 28 28 29 28 27 26 25 24 22 20 19 17 15 14 12 11 12 12 11 11 10 9 8 7 6 5 5 4 4 5
4 3 1 4 4 1 5 7 5 1 3 7 6 3 3 2 1 2 4 3 5 9 9 11 14 10 7 5 6 5 3 6 5 5 9 14 18 19 18 19 19 19 22 23 25 27 28 27 27 27 27 27 27 28 29 30 31 30 30 29 28 27 26 24 23 20 18 16 14 13 11 10 10 10 10 10 9 9 8 6 5 5 4 4 4 4
4 3 1 3 3 4 6 5 4 4 3 5 4 3 3 3 2 3 4 4 7 9 4 6 13 14 9 4 3 3 3 1 1 4 9 13 16 18 18 19 20 22 25 27 28 29 29 29 29 29 30 30 30 32 32 32 31 31 30 29 27 26 25 24 22 20 17 16 14 13 12 11 10 10 10 9 8 8 7 5 4 4 4 3 3 4
5 8 6 4 4 7 6 3 3 2 3 5 5 5 5 4 3 5 5 5 8 6 1 2 7 11 11 9 8 5 3 4 3 3 8 15 18 19 19 19 21 24 28 29 30 31 31 31 32 33 33 34 34 34 34 33 32 31 29 28 26 25 24 22 21 20 18 16 14 13 12 11 10 10 9 8 8 7 6 5 4 3 3 2 3 3
4 5 9 7 4 11 12 7 5 4 6 9 8 7 7 5 5 8 7 7 8 3 2 1 3 6 8 7 11 9 2 6 5 5 7 14 18 19 20 21 23 27 29 31 32 33 34 34 35 36 36 36 36 35 34 33 32 30 29 28 26 24 23 22 21 20 18 16 14 13 12 11 10 9 9 8 7 6 5 4 3 2 2 2 2 2
5 3 9 11 6 13 17 12 9 5 7 10 8 7 8 6 6 8 6 7 7 1 2 3 4 5 4 1 1 1 5 6 5 5 6 10 15 17 19 21 24 28 30 32 34 35 36 37 37 38 38 37 37 36 34 33 32 30 29 27 26 24 23 22 21 20 18 16 15 14 12 11 10 8 8 7 6 5 4 4 3 2 2 1 1 2
8 5 7 7 4 14 16 13 9 5 5 7 6 8 9 6 6 6 2 1 2 3 2 5 4 4 3 2 4 4 4 5 5 6 8 10 14 17 18 19 24 29 32 34 36 37 38 39 39 39 39 38 37 36 34 33 32 30 28 27 25 24 23 23 22 20 18 17 15 14 12 10 10 8 7 7 6 5 5 4 3 2 2 1 2 3
6 2 6 5 2 8 7 7 9 5 3 5 6 8 4 1 3 6 2 3 0 7 6 6 5 6 4 4 6 6 4 6 6 7 10 12 15 17 17 19 27 32 35 37 38 39 40 40 40 40 39 38 37 36 35 33 31 29 28 27 26 25 24 23 22 20 18 17 15 14 12 11 10 9 7 7 6 6 5 5 4 3 3 2 3 4
4 2 3 5 4 3 3 1 5 0 1 5 5 6 4 4 2 3 5 2 4 10 6 6 9 8 6 5 4 6 6 8 8 8 10 12 15 17 17 21 30 34 36 38 39 39 40 40 41 40 39 38 37 36 34 33 31 30 28 27 26 25 24 23 22 20 18 17 15 14 13 12 11 10 9 8 8 7 6 6 5 4 4 4 5 6
4 3 3 3 1 4 3 2 4 2 1 1 1 3 4 2 4 5 5 5 7 10 7 8 11 9 9 6 5 8 10 10 11 10 11 13 16 18 18 22 29 33 36 38 40 40 41 41 41 41 40 38 37 35 34 33 32 30 29 27 26 25 24 23 22 20 19 18 16 15 14 13 12 11 11 10 9 9 8 7 6 5 5 6 7 8
4 4 2 0 1 5 5 4 7 7 4 1 2 3 2 2 4 5 6 4 6 9 8 9 9 7 8 9 10 13 12 12 13 12 11 14 17 19 20 24 30 35 38 41 42 42 42 42 41 41 40 38 37 36 35 34 32 30 29 28 27 26 24 23 22 21 20 18 17 16 16 15 14 13 13 12 11 10 9 8 7 7 7 7 8 9
4 5 4 1 1 4 6 7 10 11 9 6 6 7 6 3 0 2 5 5 5 7 7 8 8 5 3 6 10 13 13 13 14 13 10 13 18 19 20 26 31 36 40 44 45 44 43 43 42 41 40 38 38 37 35 34 32 31 30 29 27 26 25 24 23 22 21 20 19 18 17 16 16 15 14 13 12 11 10 9 8 8 8 8 8 9
5 5 5 3 4 7 7 7 7 6 7 9 9 10 10 8 5 3 7 7 5 6 6 6 9 5 1 1 1 3 4 5 9 10 10 13 18 19 20 25 32 37 42 45 46 45 44 44 43 42 41 40 39 38 36 34 33 32 31 29 28 27 25 25 24 23 23 22 21 19 18 18 17 16 15 14 13 12 11 10 9 9 9 9 8 9
4 2 6 6 6 7 3 3 2 1 2 4 6 9 10 9 9 8 8 5 4 7 5 4 8 5 2 3 4 4 4 6 5 7 10 12 16 18 20 24 31 36 41 44 46 46 46 45 44 43 43 42 40 39 37 36 35 33 32 30 29 28 27 26 25 24 24 23 21 20 20 19 18 17 16 15 13 12 11 11 10 10 10 9 9 9
3 1 6 6 4 3 3 4 3 3 1 4 7 8 8 10 10 8 4 1 3 7 6 4 9 5 2 3 3 3 3 4 5 5 9 12 13 17 20 24 28 33 38 43 45 46 46 46 46 45 45 43 42 40 38 37 36 34 32 31 31 30 29 28 26 25 24 23 22 21 21 20 19 18 17 15 14 13 12 12 11 11 10 10 9 10
7 3 5 5 6 5 4 4 3 2 3 6 8 9 9 10 11 6 0 0 5 9 8 7 10 4 3 1 1 2 1 3 5 5 7 10 12 17 21 24 27 31 36 41 45 46 47 47 47 47 46 45 43 42 39 37 36 34 33 34 33 32 30 29 27 26 25 24 23 23 22 22 21 19 18 16 15 14 13 13 12 11 11 11 10 10
9 5 8 8 9 10 8 7 6 6 6 5 7 12 13 14 15 9 2 6 10 8 9 10 10 2 3 1 2 1 2 3 6 8 7 8 11 14 20 24 27 30 35 41 46 47 48 49 49 48 47 46 44 42 40 38 36 36 36 36 34 33 31 29 28 26 26 25 24 24 24 23 22 21 19 18 16 15 15 14 13 13 12 11 10 10
3 2 11 13 13 13 8 3 5 9 8 9 12 15 16 17 17 10 5 10 9 5 9 14 12 6 4 6 6 5 5 4 6 9 9 10 11 14 18 22 27 30 34 40 45 48 48 49 49 49 48 47 44 42 40 39 39 38 38 37 35 33 32 30 28 28 27 26 26 26 26 25 23 22 20 19 18 16 16 15 14 14 12 11 11 11
1 4 12 15 17 16 6 2 8 10 11 14 16 17 16 17 17 14 14 13 7 5 11 10 11 13 10 9 9 8 8 7 7 10 11 12 14 16 17 20 24 29 33 38 43 48 49 50 50 49 48 46 43 42 42 41 41 40 39 38 36 34 32 31 30 29 28 28 28 28 27 26 25 23 22 20 19 18 18 17 16 14 13 12 11 11
2 7 11 12 16 19 11 4 6 8 9 11 14 17 19 19 20 21 22 17 10 11 12 6 13 17 12 10 11 10 10 10 8 9 10 11 13 16 18 19 22 27 31 35 41 47 51 52 50 48 47 45 44 44 44 44 43 42 40 39 36 35 33 32 30 30 30 30 30 29 28 28 27 25 23 21 20 20 19 18 17 15 13 13 13 13
4 8 10 12 14 19 18 11 6 7 8 8 11 16 19 22 24 23 23 20 17 20 19 8 9 12 9 9 12 11 10 8 8 8 9 10 12 14 17 19 21 24 28 32 39 45 49 50 49 48 46 46 47 47 47 47 45 43 41 39 37 35 34 33 32 31 32 32 31 31 30 30 29 26 24 23 22 21 20 19 17 15 14 14 14 15
5 5 4 6 9 14 16 12 7 8 9 10 12 15 17 19 19 20 20 18 17 21 22 14 11 10 6 6 7 9 9 7 8 8 10 11 13 14 16 21 24 26 28 32 37 41 44 46 47 48 48 49 50 49 48 48 46 44 42 40 37 36 35 34 33 33 34 34 33 32 32 31 29 27 26 25 24 22 21 20 18 16 15 16 16 16
6 4 2 4 8 12 11 11 9 4 3 9 16 20 19 15 14 17 17 15 16 19 18 15 14 9 5 6 5 6 6 6 6 8 10 12 15 16 21 27 30 31 32 33 35 37 39 42 45 47 49 50 51 50 50 50 47 45 42 39 37 36 36 36 35 35 36 35 34 35 34 32 29 28 28 27 25 24 22 21 19 18 18 17 18 18
7 5 2 5 8 9 6 8 7 3 1 8 16 18 18 15 14 15 15 16 18 16 13 13 12 5 7 8 6 4 4 5 9 15 17 17 19 21 26 32 34 35 34 33 32 33 36 38 40 43 46 49 50 51 51 50 46 43 41 39 37 38 38 38 37 37 37 37 37 37 34 31 30 30 30 28 26 25 23 22 21 20 19 19 19 19
7 7 4 5 6 5 2 6 5 5 8 9 6 6 12 17 18 17 15 15 15 12 10 9 4 5 8 9 10 9 9 13 19 24 23 21 22 25 28 32 35 34 32 31 30 31 31 32 34 36 38 41 44 45 45 44 42 41 40 38 38 39 40 39 39 39 39 39 39 37 33 30 31 31 30 29 28 26 25 24 23 22 21 20 20 20
10 8 5 5 4 2 4 7 6 9 10 5 3 2 5 10 17 19 17 15 14 13 14 11 5 6 9 10 12 12 15 20 23 23 21 21 24 26 28 32 33 31 29 28 27 26 25 25 26 27 27 28 29 30 32 34 35 37 38 38 39 41 41 41 41 40 40 40 39 35 31 31 32 32 31 30 29 29 28 26 25 24 23 22 21 22
11 8 4 4 3 1 4 8 8 5 3 1 2 1 1 2 8 13 14 15 14 13 13 14 13 9 7 9 11 11 11 15 16 18 20 21 23 25 27 28 28 27 25 24 22 22 21 21 20 20 18 18 18 21 23 25 28 30 33 35 37 39 40 41 41 40 40 39 37 33 31 31 31 31 32 31 31 31 30 28 27 26 25 24 23 23
9 9 5 5 4 3 5 7 3 5 3 2 3 4 5 4 9 11 10 11 11 11 11 12 13 10 6 7 10 9 8 7 7 11 19 21 21 21 21 21 22 22 20 19 19 18 18 17 17 16 16 17 19 20 22 23 25 27 29 31 33 35 37 38 38 38 38 38 35 32 30 30 31 31 32 32 31 31 30 29 28 27 26 25 25 25
3 6 6 7 5 3 5 5 3 5 7 4 5 6 4 2 6 8 5 6 5 9 13 12 11 11 7 6 8 10 7 4 4 8 16 20 19 18 18 19 19 18 18 19 19 18 18 18 18 18 19 20 20 21 21 21 22 23 25 27 28 29 31 33 33 34 36 36 34 31 30 30 30 31 31 32 31 31 30 29 28 28 27 26 26 27
2 1 3 4 4 4 5 5 6 6 4 1 3 3 4 6 9 8 1 4 2 8 16 16 11 10 9 10 13 12 7 5 6 6 10 15 18 19 19 19 19 19 20 21 20 19 19 19 20 20 21 21 22 21 21 20 20 21 22 23 23 25 27 29 30 32 33 33 32 30 30 30 30 31 31 31 31 30 29 29 28 28 27 27 27 28
3 2 3 4 4 6 6 5 4 3 1 2 3 4 4 6 10 8 0 4 3 8 16 17 12 10 13 16 14 9 6 7 4 3 6 10 13 17 18 19 19 20 21 20 20 20 19 20 21 21 21 22 22 21 20 20 20 21 21 21 22 23 24 25 26 28 29 30 30 30 29 30 30 31 31 31 30 29 29 29 29 28 28 28 28 29
3 2 3 5 5 6 7 6 3 2 1 2 4 7 8 6 5 4 4 3 5 8 10 12 11 12 17 19 15 10 11 11 5 3 5 6 8 12 16 18 20 19 18 19 19 19 19 19 20 21 21 21 20 20 20 20 20 20 20 20 22 23 23 22 23 25 27 28 29 29 29 29 30 31 30 30 29 28 29 29 29 28 28 28 29 30
4 3 3 4 4 4 5 4 2 2 2 5 5 7 9 5 1 4 3 5 9 10 9 11 13 14 18 22 21 17 16 14 11 7 5 5 7 11 14 16 17 18 18 18 18 18 18 19 20 21 21 20 19 19 18 19 19 20 20 21 23 22 21 21 22 24 25 26 27 28 29 29 29 29 29 29 28 28 29 28 28 28 28 29 30 31
4 4 3 4 4 3 2 4 3 3 3 14 13 6 3 2 3 10 11 8 8 11 11 12 12 13 17 22 23 20 15 12 11 9 7 8 9 10 12 13 14 15 16 16 16 17 18 18 19 20 19 18 18 17 17 18 19 20 21 23 22 21 20 21 22 23 24 25 27 28 28 28 28 28 28 29 28 28 28 27 27 28 28 29 30 31
3 4 3 2 4 3 3 5 2 3 6 18 11 3 4 6 10 18 16 9 7 10 12 12 11 12 16 19 22 21 17 13 11 10 10 10 10 10 11 11 12 12 13 14 15 16 17 18 18 17 16 16 16 17 18 19 20 21 23 23 21 20 20 21 22 24 26 26 27 28 28 28 28 29 29 29 28 28 27 27 27 28 28 29 30 31
2 3 1 1 2 2 2 3 1 3 10 15 3 4 12 15 13 15 14 11 10 9 10 12 12 13 16 18 19 19 18 15 12 11 12 11 10 10 10 10 11 12 12 14 15 15 16 16 15 15 15 15 16 17 19 20 21 23 24 23 21 20 20 20 22 24 27 28 29 30 30 30 30 30 30 30 29 29 29 28 28 28 28 29 30 31
1 2 1 0 2 1 1 3 2 2 10 11 3 8 18 17 14 13 10 8 8 8 9 13 15 15 17 18 17 17 18 16 13 12 12 11 10 10 10 10 11 12 12 14 14 15 15 14 14 14 15 15 17 18 19 21 23 24 24 22 22 22 22 22 23 24 26 28 30 31 32 32 32 32 32 32 32 32 31 30 30 29 29 29 30 31
1 4 2 1 2 2 1 3 3 2 7 8 5 10 16 15 14 11 7 6 8 11 12 15 16 17 16 15 15 15 15 13 12 12 11 10 10 10 10 11 12 13 14 14 15 15 16 15 15 15 15 17 18 19 20 22 24 25 25 25 25 26 26 26 26 26 27 28 30 31 33 34 34 35 35 35 35 35 34 33 32 31 31 31 30 30
3 6 4 2 2 1 1 1 3 2 5 8 7 10 14 15 12 8 6 8 11 13 14 15 16 16 14 13 14 14 12 11 10 10 10 11 11 11 12 14 15 15 16 16 17 18 18 17 18 18 19 20 22 22 23 25 26 27 28 29 29 30 31 31 31 30 30 29 30 32 34 35 36 37 37 38 38 38 38 36 35 33 33 32 31 31
5 6 4 2 2 1 0 1 1 2 2 7 10 11 14 14 11 10 11 13 14 14 14 14 14 13 12 12 13 13 13 13 12 12 13 14 14 14 16 17 17 19 19 19 20 20 21 21 21 21 22 24 24 25 26 27 28 29 30 32 34 35 35 35 35 35 34 33 33 34 35 36 38 39 39 40 40 40 40 39 37 35 34 33 33 33
5 5 3 3 2 2 2 5 7 3 2 5 13 15 15 14 14 16 17 17 16 14 13 12 13 14 14 14 13 13 14 14 14 15 16 16 16 16 17 18 19 21 22 22 22 23 23 23 23 23 24 24 24 25 27 28 29 30 32 33 35 37 39 40 40 40 39 38 38 38 38 39 40 41 41 42 42 42 42 41 40 38 36 36 36 35
6 4 4 4 2 2 4 12 14 5 4 4 13 17 18 18 17 18 18 17 16 15 13 13 14 16 16 16 16 16 17 17 16 17 18 18 17 17 17 19 21 22 23 24 25 25 25 25 25 25 26 25 24 25 27 29 30 32 33 34 35 37 39 41 42 44 44 44 43 42 42 42 42 43 44 44 44 45 45 44 43 40 39 38 38 37
Wind_Direction
192 214 218 227 231 232 228 222 235 259 280 288 284 277 273 270 271 270 161 118 143 248 255 256 261 264 263 263 228 185 182 198 208 207 207 201 195 197 201 214 220 222 233 235 221 209 201 194 186 174 161 150 148 145 144 150 157 160 153 151 153 150 149 152 151 149 150 155 158 160 164 162 154 153 155 154 165 168 156 152 141 120 106 101 99 95
192 226 230 233 242 249 245 229 234 251 258 261 269 269 264 261 269 273 171 137 149 229 264 266 267 267 260 268 261 191 175 201 206 207 214 204 195 192 195 208 214 221 231 226 210 202 196 189 182 175 164 156 154 149 148 152 154 150 145 146 150 151 150 149 148 148 150 154 157 162 162 153 139 125 123 123 119 117 114 112 108 103 99 97 95 91
214 232 236 239 242 232 229 233 236 243 250 253 254 257 261 260 271 269 159 148 187 219 270 275 271 272 266 268 263 204 191 211 209 211 218 202 192 190 191 201 208 219 226 216 207 200 192 187 182 177 169 163 157 150 151 154 154 151 146 144 144 145 148 148 147 151 153 153 151 145 132 125 122 116 113 112 109 108 106 104 101 98 96 94 91 88
225 237 236 225 191 185 218 226 229 239 244 242 239 246 251 252 262 259 166 149 205 228 280 290 281 276 271 267 257 227 208 204 193 198 202 190 188 187 190 199 205 212 215 208 204 197 189 185 182 179 174 167 159 154 155 156 155 154 149 147 147 147 151 152 150 152 149 140 133 127 121 122 121 117 113 110 108 106 103 100 97 94 92 88 84 80
242 239 153 184 184 211 228 216 216 231 241 234 231 236 248 252 249 252 255 144 228 235 245 272 282 273 261 253 246 223 179 171 174 188 196 192 189 185 188 196 199 201 203 202 199 195 190 186 184 182 177 168 162 160 160 158 158 158 155 155 156 156 157 154 146 142 136 130 127 126 125 126 122 116 113 111 109 106 102 97 93 88 84 79 74 69
246 154 126 174 184 207 223 221 212 217 246 245 226 224 240 257 258 260 277 320 279 261 199 219 274 278 258 250 233 159 158 203 189 197 206 199 195 193 194 195 195 195 194 195 197 194 191 189 187 183 178 170 165 166 164 162 162 161 161 164 166 165 158 150 142 136 132 130 129 129 128 126 121 117 113 110 107 103 98 92 86 80 74 67 60 56
234 133 144 186 183 199 220 235 220 209 240 262 234 213 231 252 261 263 271 266 275 288 148 183 264 282 277 265 240 164 182 202 188 205 208 196 194 196 194 193 198 200 196 191 193 193 192 190 187 183 180 173 169 169 167 166 166 164 165 166 162 157 150 143 138 134 132 131 129 128 126 122 119 117 114 109 105 100 95 88 83 76 69 60 50 45
158 162 176 189 199 213 221 239 223 202 228 259 20 224 222 242 254 255 259 249 264 290 231 190 240 278 276 263 244 188 192 207 196 204 205 195 194 193 189 188 196 202 201 195 192 191 190 188 185 183 181 175 172 171 169 169 168 163 161 157 152 149 144 139 135 132 130 128 126 124 122 121 120 118 114 111 108 104 100 96 91 82 73 62 49 40
145 181 189 193 207 221 224 244 195 189 223 254 60 38 178 243 269 257 254 253 264 277 253 206 199 256 272 256 221 196 220 237 218 202 196 192 189 187 185 182 185 193 196 195 190 187 186 185 183 182 179 176 174 172 170 167 163 158 155 151 148 145 141 138 134 132 130 127 126 124 126 127 124 121 118 116 115 113 111 107 101 93 82 69 56 44
79 177 207 203 212 222 198 49 106 193 220 144 122 92 86 89 303 239 249 260 258 256 252 219 186 226 277 261 201 194 232 248 238 208 184 182 182 180 179 175 175 182 186 187 186 186 186 184 181 179 176 175 172 169 165 161 157 154 152 150 147 144 141 138 136 135 133 131 130 129 132 134 130 128 125 123 123 121 120 115 106 100 87 75 63 50
98 88 321 223 218 186 111 72 36 46 127 139 155 130 119 182 173 212 237 251 261 255 247 222 198 208 271 272 202 195 229 248 236 174 162 171 175 173 173 171 171 179 183 182 184 186 184 181 178 176 174 172 168 165 162 159 157 154 152 151 149 146 145 142 139 140 138 137 138 137 137 139 135 130 127 128 128 127 128 122 112 107 95 83 70 51
174 171 188 184 174 115 112 101 57 59 128 161 185 188 195 213 179 218 220 197 250 258 245 209 200 204 231 252 188 151 98 66 88 148 166 172 170 169 170 168 171 182 185 182 184 184 180 177 176 174 172 169 166 164 162 160 158 156 154 153 152 150 149 147 145 145 146 147 148 146 145 145 140 133 129 132 132 132 135 132 123 119 107 90 71 50
212 211 187 149 169 179 173 159 117 108 184 196 196 190 210 232 217 235 222 200 238 249 82 122 196 212 235 247 247 241 134 124 91 115 166 171 169 168 166 165 172 182 185 183 183 180 176 175 174 173 171 169 167 166 164 162 160 159 157 156 155 155 154 153 152 152 156 158 156 153 152 150 144 137 133 136 137 138 142 143 136 127 115 92 69 43
201 212 188 172 186 194 195 192 180 176 181 192 194 186 201 224 238 250 244 237 242 221 101 113 186 235 257 252 248 248 142 110 98 91 147 167 168 165 162 166 174 181 183 183 181 177 175 174 173 172 171 170 169 167 166 164 162 161 160 160 160 161 160 159 159 162 166 165 162 159 157 153 148 141 138 141 144 147 151 155 149 138 131 103 60 27
216 245 186 182 176 178 192 212 216 184 175 196 199 198 213 218 238 255 253 253 260 231 145 174 176 224 232 154 210 185 91 94 103 105 128 154 160 158 159 167 176 179 181 182 179 177 175 174 174 173 173 172 170 169 167 166 165 165 165 165 166 167 166 166 167 170 172 171 168 164 161 157 151 146 146 150 156 161 165 166 163 159 155 131 8 349
228 258 163 158 140 166 187 214 209 172 175 195 193 214 228 228 243 261 272 268 311 324 224 191 216 254 229 137 116 115 122 132 122 124 142 148 152 156 160 168 177 180 182 182 179 177 176 176 176 176 174 173 172 171 170 169 169 170 170 170 172 173 173 173 174 175 175 176 173 169 166 161 158 157 160 166 172 174 176 179 179 187 199 245 290 308
221 256 130 126 136 170 189 203 186 175 170 168 187 212 214 25 270 257 245 106 98 277 254 187 223 263 258 223 151 138 160 163 151 151 161 161 159 164 168 173 180 184 184 183 180 179 179 179 179 178 176 176 175 174 173 173 174 174 175 175 177 179 179 178 179 179 179 179 178 175 171 168 169 173 177 183 188 187 189 195 199 214 232 253 273 289
221 265 156 169 184 164 25 66 168 197 100 150 193 193 121 50 340 264 262 245 235 261 255 196 223 234 229 232 146 151 183 180 177 169 164 169 171 175 178 179 185 187 186 185 183 182 183 182 181 180 179 179 178 177 176 177 178 178 179 181 182 184 184 184 184 182 183 184 184 182 179 178 181 186 192 196 198 200 202 208 215 225 240 256 269 279
213 244 193 178 171 128 95 147 174 212 224 173 281 159 139 221 223 199 235 257 248 255 263 239 236 229 222 220 161 179 197 186 182 176 171 178 180 182 179 178 185 188 188 188 186 186 186 184 183 182 182 182 181 180 181 181 182 181 183 185 187 189 189 189 188 187 188 190 190 189 186 187 191 196 201 203 203 207 208 213 220 228 243 255 264 273
195 232 225 346 42 133 150 194 192 190 191 10 315 203 185 250 233 207 216 242 250 252 268 260 241 228 222 210 188 193 197 185 179 179 185 187 184 183 178 176 184 188 191 191 189 189 188 186 186 186 186 185 183 184 185 185 185 185 187 189 190 192 193 193 193 193 193 194 194 195 194 195 200 203 206 206 207 209 211 215 221 231 243 252 260 270
173 216 229 135 106 164 178 202 204 194 179 177 204 207 197 186 244 288 240 228 241 249 261 264 257 252 208 200 203 200 193 184 180 180 186 185 182 183 179 179 184 190 193 193 192 192 190 189 190 190 189 188 188 189 189 188 188 190 192 193 194 195 196 196 196 196 197 197 197 200 201 203 206 207 208 209 209 211 213 218 224 233 243 251 259 268
184 205 213 168 178 209 207 195 202 207 187 187 197 197 196 191 183 235 236 214 218 245 253 270 274 275 89 66 266 203 174 161 167 171 171 174 178 181 181 183 188 193 196 195 194 193 192 192 193 193 192 193 193 193 192 191 193 194 196 196 197 198 200 201 200 200 201 202 202 203 206 209 210 210 211 211 212 213 217 222 229 236 243 249 257 266
179 187 216 211 200 204 187 121 104 354 240 225 227 209 202 198 191 209 228 197 182 229 241 272 277 277 65 43 31 45 46 54 88 137 149 162 172 175 180 186 192 197 198 197 197 196 195 196 196 196 196 196 196 196 195 195 197 198 198 199 200 202 203 203 203 204 204 205 206 207 209 211 213 213 214 213 214 218 221 226 231 236 242 248 256 266
126 162 218 227 222 179 117 104 87 41 336 251 245 221 212 214 207 213 239 166 187 221 210 232 257 253 74 39 36 58 70 74 79 114 136 149 164 176 184 188 193 200 201 200 199 199 199 199 199 200 200 199 199 199 198 199 200 200 201 203 205 206 205 205 205 207 208 208 210 211 212 214 216 216 216 217 219 221 224 228 233 236 242 250 260 270
163 192 203 216 237 214 179 189 186 150 200 225 226 214 212 216 210 207 287 274 242 227 201 222 252 242 92 46 349 48 92 117 117 131 142 148 161 178 188 192 195 200 202 202 202 202 202 202 203 204 203 202 202 202 202 202 202 203 205 208 209 208 207 207 208 210 211 211 213 214 215 217 219 219 219 220 222 223 225 229 233 239 246 255 265 277
173 184 177 195 228 223 218 220 198 177 187 213 218 210 208 206 204 202 189 223 238 226 201 224 246 237 101 197 239 212 209 157 135 144 159 158 159 173 187 196 200 202 205 205 204 204 205 206 207 207 207 206 206 205 205 205 206 207 209 211 211 210 210 210 211 212 213 215 216 217 219 220 220 221 222 223 224 224 227 231 235 242 250 259 270 284
162 218 193 205 224 226 234 229 148 139 158 193 204 202 204 204 202 203 217 226 230 230 227 229 231 230 199 201 221 212 199 191 160 160 168 169 168 174 187 199 202 204 207 207 207 208 208 209 210 210 210 209 208 208 208 209 210 211 213 213 212 212 213 213 214 215 215 217 219 220 222 222 222 224 224 225 225 226 229 233 238 245 253 263 276 289
69 244 212 221 233 236 246 126 148 158 180 199 198 195 201 203 199 203 221 222 197 216 246 221 204 228 223 191 204 207 191 197 188 172 168 170 179 186 190 196 201 205 208 209 210 211 211 212 212 213 213 212 211 212 213 214 215 214 215 215 213 214 216 217 218 218 218 220 222 223 223 223 224 226 226 226 226 228 231 235 241 248 257 268 279 289
172 232 223 222 236 243 243 192 173 193 208 207 197 195 196 197 198 205 220 222 196 218 246 186 179 219 223 188 192 196 192 197 180 160 156 163 179 189 193 197 203 208 210 212 214 214 214 215 214 214 214 214 214 216 217 218 218 217 217 217 217 218 220 220 221 221 222 224 225 225 224 224 226 227 227 227 227 229 232 237 243 251 261 270 278 286
193 234 227 214 234 246 240 227 199 200 225 228 214 208 200 198 200 204 216 220 213 227 241 222 201 228 222 189 186 186 192 182 143 141 159 170 184 193 200 208 213 216 219 220 220 218 217 217 217 217 217 217 218 219 221 222 221 220 219 219 219 220 222 224 224 225 226 227 227 227 226 227 228 228 227 227 228 230 234 238 245 254 263 271 276 280
198 225 203 189 237 249 237 230 213 204 227 239 236 229 214 205 202 206 217 219 216 231 240 241 252 253 216 175 158 153 162 149 139 165 182 194 207 211 218 225 227 229 230 227 223 220 218 219 219 220 220 220 222 222 224 225 225 223 223 222 222 224 226 227 227 228 229 229 229 228 229 230 229 229 229 228 229 232 235 240 247 256 264 268 273 276
193 215 93 140 229 247 231 213 205 194 235 254 250 240 224 209 198 206 217 214 211 227 232 234 249 245 167 134 106 115 146 162 185 203 207 221 229 228 231 233 233 234 234 231 226 221 220 220 221 222 223 224 225 226 227 229 228 227 226 225 227 229 229 231 231 231 231 231 230 230 231 231 230 230 231 230 231 234 237 242 249 256 263 267 270 273
184 199 183 172 217 253 236 186 179 135 109 251 251 238 219 208 205 212 219 215 212 218 218 223 237 215 139 145 158 163 171 190 217 226 228 234 236 236 236 234 232 233 233 231 226 221 221 222 223 225 226 227 228 229 230 232 232 232 232 233 234 234 234 234 234 234 233 232 232 233 233 232 231 233 233 232 233 236 239 245 251 256 262 265 267 269
194 200 209 192 213 250 189 131 141 182 214 237 258 232 208 200 200 210 220 216 210 212 221 235 229 146 152 172 181 189 201 211 224 232 235 237 236 236 235 232 230 229 228 226 223 221 223 225 228 231 232 233 234 235 237 239 240 241 241 241 241 240 239 238 236 235 234 233 234 235 234 234 234 236 236 235 236 238 242 248 253 256 260 264 266 267
190 198 206 200 215 231 132 134 179 215 227 251 349 340 223 200 198 211 225 225 214 213 224 237 226 168 170 183 192 202 215 221 229 236 238 239 238 236 233 230 226 224 224 223 223 225 228 230 232 234 233 234 236 237 239 240 241 243 243 242 243 242 241 240 237 236 236 235 236 236 235 236 237 238 239 238 238 240 244 249 254 258 261 263 265 266
181 187 196 194 191 137 152 180 208 236 258 307 335 322 84 151 190 209 232 238 222 211 215 225 231 217 178 176 193 204 215 223 231 235 234 237 240 237 232 228 223 221 222 224 226 228 227 225 224 224 224 226 228 231 234 235 235 237 239 240 242 242 242 241 239 239 239 237 237 237 237 238 239 241 241 241 241 242 246 250 255 259 261 263 265 265
183 183 189 203 194 168 194 207 249 312 290 227 205 187 162 166 185 191 221 237 217 199 200 213 230 229 187 170 190 193 196 210 231 239 236 238 237 232 228 224 221 223 224 225 226 225 223 222 223 227 233 235 237 238 237 235 233 233 234 236 239 240 241 240 240 240 239 238 237 238 239 240 242 243 244 244 244 244 247 252 257 260 262 263 264 264
193 185 188 204 201 176 205 221 247 268 256 220 184 182 154 129 168 169 197 234 202 182 187 197 223 225 193 156 167 166 163 194 236 235 229 230 226 216 213 215 218 223 224 223 224 225 226 230 233 236 238 236 235 235 233 231 231 231 233 234 236 237 237 236 235 236 237 238 238 239 241 242 243 245 246 247 247 246 249 254 258 261 262 263 262 262
97 122 173 202 194 173 199 218 214 227 247 181 153 136 89 104 117 107 106 252 193 174 188 196 214 214 186 168 166 157 157 211 234 218 210 219 220 215 215 217 218 221 222 223 226 229 231 233 232 230 228 226 226 227 225 227 229 230 233 236 236 236 235 232 231 232 233 235 236 238 241 243 245 247 248 249 248 248 252 256 259 261 261 261 260 261
141 152 187 207 205 193 199 216 227 241 271 117 120 105 112 131 118 103 172 247 185 181 195 199 203 194 179 173 166 160 189 218 224 179 185 208 220 221 225 229 227 224 223 223 226 227 227 226 224 223 223 222 223 224 225 229 231 232 235 236 236 237 237 237 237 234 232 232 234 239 243 245 247 248 248 249 249 250 253 256 257 258 258 258 259 260
166 181 199 206 212 209 206 215 248 269 184 136 126 140 143 127 119 168 221 195 161 184 194 189 186 183 176 171 170 187 216 219 218 209 200 205 213 215 220 224 223 220 218 218 220 219 218 218 219 221 223 224 225 228 231 233 234 234 235 235 235 238 240 241 239 236 234 234 236 241 244 245 247 247 248 249 249 250 252 253 254 255 257 258 259 261
167 163 187 205 208 206 210 222 256 276 163 125 113 138 145 131 183 205 156 121 154 170 168 168 178 184 185 187 192 203 214 217 220 226 225 216 209 207 208 209 208 207 208 209 211 212 214 216 219 220 222 224 227 230 232 234 234 235 236 235 237 240 240 239 237 236 236 237 238 241 242 243 244 245 245 245 245 246 248 249 252 255 257 259 260 262
162 160 179 206 191 177 220 208 211 288 155 139 128 124 180 232 163 143 128 119 144 150 152 166 180 189 194 200 204 206 209 212 213 217 216 207 197 193 193 193 195 198 202 205 208 211 214 217 220 221 222 224 228 229 230 233 234 235 236 238 241 242 240 240 241 240 239 239 240 241 242 243 242 241 240 241 242 244 247 249 253 256 258 259 261 263
178 177 187 205 179 172 215 201 201 337 170 159 143 112 177 158 131 134 135 134 144 152 163 177 187 198 204 208 209 208 209 211 212 210 204 196 190 185 184 186 192 199 206 212 216 217 218 219 221 223 226 228 231 233 234 237 238 237 239 243 244 241 240 241 242 243 243 244 244 245 246 245 243 241 240 241 243 244 245 248 252 255 257 259 261 264
194 164 147 182 167 163 195 183 21 12 169 170 141 75 141 139 126 130 132 134 149 164 180 189 199 210 213 212 209 208 211 215 215 209 199 194 194 193 192 199 208 214 219 221 220 219 219 219 220 223 228 232 235 239 241 243 242 241 245 248 246 242 242 244 244 245 246 246 247 248 248 247 244 243 243 243 244 244 245 248 251 253 257 259 261 264
89 113 105 11 153 143 123 138 89 96 164 166 119 124 146 144 132 130 128 137 166 192 203 204 212 219 217 216 213 212 217 219 213 206 199 197 202 206 210 218 222 226 228 225 222 220 218 220 223 227 233 238 241 242 244 244 244 247 252 254 249 247 249 250 250 249 248 248 249 249 249 247 246 246 245 244 244 244 245 247 250 252 255 258 260 264
160 151 171 220 173 177 157 120 78 84 163 163 131 138 155 155 143 139 143 167 193 209 212 213 220 222 223 227 223 218 221 220 210 202 200 202 211 219 229 236 234 235 237 233 230 228 227 229 234 237 242 248 251 251 249 248 249 252 256 255 252 251 252 252 252 252 250 250 251 250 250 249 248 248 247 245 245 246 246 247 249 251 253 255 257 261
163 151 169 221 205 159 135 86 35 34 173 179 167 157 163 165 159 161 182 197 206 213 213 215 221 223 227 234 227 221 222 220 215 214 217 225 233 238 245 248 246 246 245 239 235 234 235 238 243 247 253 258 260 259 256 253 253 254 255 255 254 254 253 252 253 253 252 252 252 251 252 251 250 249 249 248 248 248 248 249 250 251 253 255 257 260
133 147 161 153 141 130 316 172 61 37 163 201 204 188 173 172 182 200 208 211 214 214 213 218 223 222 224 229 228 226 227 228 228 229 231 237 240 242 246 248 249 250 248 243 239 239 241 245 249 254 260 263 264 263 261 259 259 257 256 256 256 256 256 255 255 255 254 253 252 252 253 252 252 251 251 250 250 250 250 252 252 253 254 256 258 260
144 168 152 119 165 222 194 170 170 134 89 199 209 203 188 182 194 210 214 215 216 215 217 221 222 221 224 228 230 233 234 236 237 236 237 240 241 242 244 245 245 248 248 246 243 242 243 247 252 256 260 262 262 262 263 263 262 261 259 258 257 257 258 258 258 257 256 255 254 254 254 254 254 254 254 253 253 252 251 252 252 252 253 255 257 259
180 189 159 149 200 248 162 168 172 148 66 175 199 205 204 202 206 216 222 224 225 224 225 226 226 228 232 233 236 239 241 242 243 243 244 245 244 245 246 245 245 248 249 247 245 244 244 247 251 255 258 261 263 263 264 264 263 262 261 260 259 259 259 259 260 260 259 259 258 258 258 258 258 258 257 256 256 254 252 251 251 251 252 254 256 258